"startDT [UTC]","vpos","CH4 [ppm]","stdev(CH4) [ppm]","CO2 [ppm]","stdev(CO2) [ppm]","H2O [ppm]","stdev(H2O)","p_LGR [torr]","T_LGR [C]","mt1_LGR [us]","mt2_LGR [us]","T_ECpre [C]","T_EC1 [C]","T_EC2 [C]","p_inlet [hPa]","p_in [hPa]","p_out [hPa]","T_inlet [C]","RH_inlet [%]","dwpt_inlet [C]","T_vent [C]","RH_vent [%]","dwpt_vent [C]","flow_vent [l min-1]","flow_inlet [l min-1]","dwpt_sample [C]","T_room [C]"
2012-01-07 00:00:00,0.0,1.9339,0.0008,404.29,0.20,-1.0,0.0,138.22,23.83,24.57,36.24,0.04,-272.74,-272.74,-44,541,-939,18.8,1.2,-37.1,18.9,1.2,-36.7,5.73,2.43,-34.7,23.8
2012-01-07 00:01:00,0.0,1.9342,0.0009,404.31,0.16,-1.0,0.0,138.22,23.83,24.57,36.24,0.04,-272.74,-272.74,-44,541,-939,18.8,1.1,-37.2,18.9,1.2,-36.7,5.73,2.44,-34.7,23.8
2012-01-07 00:02:00,0.0,1.9340,0.0010,404.35,0.18,-1.0,0.0,138.22,23.83,24.57,36.23,0.04,-272.74,-272.74,-44,541,-939,18.8,1.2,-37.1,18.9,1.2,-36.7,5.73,2.51,-34.7,23.8
2012-01-07 00:03:00,0.0,1.9336,0.0010,404.37,0.23,-1.0,0.0,138.22,23.83,24.57,36.23,0.04,-272.74,-272.74,-44,541,-940,18.8,1.2,-36.9,18.9,1.2,-36.7,5.73,2.52,-34.7,23.8
2012-01-07 00:04:00,0.0,1.9331,0.0007,404.22,0.20,-1.0,0.0,138.22,23.83,24.57,36.24,0.04,-272.74,-272.74,-43,541,-939,18.8,1.2,-36.9,18.9,1.2,-36.7,5.73,2.47,-34.7,23.8
2012-01-07 00:05:00,0.0,1.9324,0.0010,404.27,0.17,-1.0,0.0,138.22,23.84,24.57,36.23,0.04,-272.74,-272.74,-44,541,-940,18.8,1.2,-36.9,18.9,1.2,-36.7,5.73,2.43,-34.7,23.8
2012-01-07 00:06:00,0.0,1.9322,0.0011,404.23,0.19,-1.0,0.0,138.22,23.84,24.58,36.24,0.04,-272.74,-272.74,-44,541,-939,18.8,1.2,-37.1,18.9,1.2,-36.7,5.73,2.45,-34.7,23.8
2012-01-07 00:07:00,0.0,1.9328,0.0008,404.29,0.17,-1.0,0.0,138.22,23.84,24.57,36.24,0.04,-272.74,-272.74,-44,541,-939,18.8,1.2,-37.1,18.9,1.2,-36.7,5.73,2.50,-34.7,23.8
2012-01-07 00:08:00,0.0,1.9328,0.0009,404.24,0.18,-1.0,0.0,138.22,23.84,24.57,36.24,0.04,-272.74,-272.74,-44,541,-939,18.8,1.1,-37.2,18.9,1.2,-36.9,5.73,2.52,-34.7,23.9
2012-01-07 00:09:00,0.0,1.9326,0.0009,404.24,0.18,-1.0,0.0,138.22,23.84,24.57,36.24,0.04,-272.74,-272.73,-44,541,-939,18.8,1.1,-37.4,18.9,1.2,-36.9,5.73,2.48,-34.7,23.8
2012-01-07 00:10:00,0.0,1.9322,0.0010,404.18,0.19,-1.0,0.0,138.22,23.84,24.57,36.24,0.04,-272.74,-272.74,-44,541,-940,18.8,1.1,-37.4,18.9,1.1,-37.2,5.73,2.42,-34.7,23.8
2012-01-07 00:11:00,0.0,1.9322,0.0010,404.25,0.17,-1.0,0.0,138.22,23.83,24.57,36.24,0.04,-272.74,-272.74,-43,541,-939,18.8,1.1,-37.5,18.9,1.2,-37.1,5.73,2.44,-34.7,23.9
2012-01-07 00:12:00,0.0,1.9318,0.0008,404.23,0.21,-1.0,0.0,138.22,23.83,24.57,36.24,0.04,-272.74,-272.74,-44,541,-939,18.8,1.1,-37.4,18.9,1.2,-36.9,5.73,2.51,-34.7,23.9
2012-01-07 00:13:00,0.0,1.9320,0.0007,404.20,0.18,-1.0,0.0,138.22,23.83,24.57,36.24,0.04,-272.74,-272.74,-44,541,-939,18.8,1.1,-37.3,18.9,1.2,-36.9,5.73,2.52,-34.7,23.8
2012-01-07 00:14:00,0.0,1.9321,0.0009,404.27,0.20,-1.0,0.0,138.22,23.83,24.57,36.24,0.04,-272.74,-272.74,-44,541,-939,18.8,1.1,-37.4,18.9,1.2,-37.0,5.73,2.46,-34.7,23.8
2012-01-07 00:15:00,0.0,1.9321,0.0008,404.22,0.16,-1.0,0.0,138.22,23.82,24.57,36.24,0.04,-272.74,-272.74,-44,541,-939,18.8,1.1,-37.2,18.9,1.2,-36.9,5.73,2.42,-34.7,23.8
2012-01-07 00:16:00,0.0,1.9319,0.0008,404.24,0.18,-1.0,0.0,138.22,23.82,24.57,36.23,0.04,-272.74,-272.74,-44,541,-939,18.8,1.2,-37.1,18.9,1.2,-36.9,5.73,2.46,-34.7,23.8
2012-01-07 00:17:00,0.0,1.9321,0.0009,404.26,0.17,-1.0,0.0,138.22,23.83,24.58,36.24,0.04,-272.74,-272.74,-44,541,-940,18.8,1.2,-37.1,18.8,1.2,-36.8,5.73,2.52,-34.7,23.9
2012-01-07 00:18:00,0.0,1.9322,0.0009,404.23,0.21,-1.0,0.0,138.22,23.83,24.57,36.24,0.04,-272.74,-272.74,-44,540,-939,18.8,1.2,-37.1,18.9,1.2,-36.7,5.73,2.51,-34.7,23.8
2012-01-07 00:19:00,0.0,1.9320,0.0008,404.22,0.16,-1.0,0.0,138.22,23.83,24.57,36.23,0.04,-272.74,-272.74,-44,541,-939,18.8,1.1,-37.2,18.9,1.2,-36.7,5.73,2.44,-34.7,23.8
2012-01-07 00:20:00,0.0,1.9319,0.0010,404.23,0.19,-1.0,0.0,138.22,23.83,24.58,36.23,0.04,-272.74,-272.74,-44,541,-939,18.8,1.2,-37.1,18.9,1.2,-36.7,5.73,2.42,-34.7,23.8
2012-01-07 00:21:00,0.0,1.9326,0.0008,404.25,0.20,-1.0,0.0,138.22,23.83,24.57,36.24,0.04,-272.74,-272.74,-44,541,-939,18.8,1.1,-37.2,18.9,1.2,-36.7,5.73,2.47,-34.7,23.8
2012-01-07 00:22:00,0.0,1.9330,0.0008,404.20,0.16,-1.0,0.0,138.22,23.83,24.58,36.24,0.04,-272.74,-272.74,-44,541,-939,18.8,1.2,-37.1,18.9,1.2,-36.6,5.73,2.53,-34.7,23.8
2012-01-07 00:23:00,0.0,1.9326,0.0008,404.06,0.15,-1.0,0.0,138.22,23.83,24.58,36.25,0.04,-272.74,-272.74,-44,541,-939,18.8,1.2,-37.2,18.9,1.2,-36.9,5.73,2.50,-34.7,23.8
2012-01-07 00:24:00,0.0,1.9324,0.0009,404.20,0.21,-1.0,0.0,138.22,23.83,24.58,36.24,0.04,-272.74,-272.74,-44,541,-939,18.8,1.1,-37.2,18.9,1.2,-36.9,5.73,2.42,-34.7,23.8
2012-01-07 00:25:00,0.0,1.9328,0.0010,404.25,0.19,-1.0,0.0,138.22,23.83,24.58,36.24,0.04,-272.74,-272.74,-44,541,-939,18.8,1.1,-37.2,18.9,1.2,-36.9,5.73,2.44,-34.7,23.8
2012-01-07 00:26:00,0.0,1.9322,0.0008,404.19,0.14,-1.0,0.0,138.22,23.83,24.58,36.24,0.04,-272.74,-272.74,-44,541,-940,18.8,1.1,-37.2,18.9,1.2,-36.9,5.73,2.50,-34.7,23.9
2012-01-07 00:27:00,0.0,1.9318,0.0009,404.23,0.19,-1.0,0.0,138.22,23.83,24.58,36.24,0.04,-272.74,-272.74,-44,541,-939,18.8,1.2,-37.1,18.9,1.2,-37.0,5.73,2.52,-34.7,23.8
2012-01-07 00:28:00,0.0,1.9312,0.0009,404.17,0.20,-1.0,0.0,138.22,23.82,24.58,36.24,0.04,-272.74,-272.74,-44,541,-939,18.8,1.2,-37.1,18.9,1.2,-36.9,5.73,2.46,-34.7,23.8
2012-01-07 00:29:00,0.0,1.9312,0.0009,404.24,0.20,-1.0,0.0,138.22,23.82,24.57,36.23,0.04,-272.74,-272.74,-44,541,-939,18.8,1.1,-37.2,18.9,1.2,-36.9,5.73,2.42,-34.7,23.8
2012-01-07 00:30:00,0.0,1.9313,0.0009,404.24,0.17,-1.0,0.0,138.22,23.82,24.57,36.24,0.04,-272.74,-272.74,-44,541,-939,18.8,1.1,-37.2,18.9,1.2,-36.7,5.73,2.45,-34.7,23.9
2012-01-07 00:31:00,0.0,1.9310,0.0009,404.27,0.16,-1.0,0.0,138.22,23.82,24.58,36.24,0.04,-272.74,-272.74,-44,541,-939,18.8,1.1,-37.2,18.9,1.2,-36.7,5.73,2.53,-34.7,23.8
2012-01-07 00:32:00,0.0,1.9310,0.0009,404.12,0.21,-1.0,0.0,138.22,23.82,24.57,36.24,0.04,-272.74,-272.74,-44,541,-939,18.8,1.2,-36.9,18.9,1.2,-36.7,5.73,2.50,-34.7,23.8
2012-01-07 00:33:00,0.0,1.9303,0.0007,404.16,0.17,-1.0,0.0,138.22,23.82,24.58,36.24,0.04,-272.74,-272.74,-44,541,-939,18.8,1.2,-36.9,18.9,1.2,-36.5,5.73,2.43,-34.7,23.8
2012-01-07 00:34:00,0.0,1.9312,0.0008,404.27,0.16,-1.0,0.0,138.22,23.82,24.58,36.23,0.04,-272.74,-272.74,-44,541,-939,18.8,1.2,-36.9,18.9,1.2,-36.6,5.73,2.42,-34.7,23.8
2012-01-07 00:35:00,0.0,1.9319,0.0011,404.29,0.17,-1.0,0.0,138.22,23.82,24.57,36.23,0.04,-272.74,-272.74,-44,541,-939,18.8,1.2,-37.1,18.9,1.2,-36.7,5.73,2.49,-34.7,23.8
2012-01-07 00:36:00,0.0,1.9315,0.0009,404.20,0.21,-1.0,0.0,138.22,23.82,24.57,36.24,0.04,-272.74,-272.74,-44,541,-939,18.8,1.1,-37.2,18.9,1.2,-36.7,5.73,2.53,-34.7,23.8
2012-01-07 00:37:00,0.0,1.9323,0.0010,404.28,0.22,-1.0,0.0,138.22,23.82,24.57,36.23,0.04,-272.74,-272.74,-44,541,-939,18.8,1.1,-37.2,18.9,1.2,-36.7,5.73,2.47,-34.7,23.8
2012-01-07 00:38:00,0.0,1.9310,0.0009,404.04,0.18,-1.0,0.0,138.22,23.82,24.58,36.24,0.04,-272.74,-272.74,-44,541,-939,18.8,1.1,-37.2,18.9,1.2,-36.7,5.73,2.42,-34.7,23.8
2012-01-07 00:39:00,0.0,1.9315,0.0008,404.17,0.20,-1.0,0.0,138.22,23.82,24.57,36.24,0.04,-272.74,-272.74,-44,541,-939,18.8,1.1,-37.2,18.9,1.2,-36.7,5.73,2.46,-34.7,23.8
2012-01-07 00:40:00,0.0,1.9327,0.0009,404.22,0.22,-1.0,0.0,138.22,23.82,24.57,36.24,0.04,-272.74,-272.74,-44,541,-939,18.8,1.1,-37.2,18.9,1.2,-36.7,5.73,2.52,-34.6,23.8
2012-01-07 00:41:00,0.0,1.9335,0.0008,404.27,0.21,-1.0,0.0,138.22,23.83,24.58,36.24,0.04,-272.74,-272.74,-44,541,-939,18.8,1.1,-37.2,18.9,1.2,-36.6,5.73,2.49,-34.7,23.8
2012-01-07 00:42:00,0.0,1.9342,0.0010,404.32,0.21,-1.0,0.0,138.22,23.83,24.57,36.24,0.04,-272.74,-272.74,-44,541,-939,18.8,1.2,-37.1,18.9,1.2,-36.9,5.73,2.42,-34.7,23.8
2012-01-07 00:43:00,0.0,1.9360,0.0009,404.31,0.19,-1.0,0.0,138.22,23.83,24.57,36.25,0.04,-272.74,-272.74,-44,541,-939,18.8,1.1,-37.2,18.9,1.2,-36.9,5.73,2.44,-34.7,23.8
2012-01-07 00:44:00,0.0,1.9359,0.0010,404.39,0.20,-1.0,0.0,138.22,23.83,24.58,36.24,0.04,-272.74,-272.74,-44,541,-940,18.8,1.1,-37.2,18.9,1.2,-36.9,5.73,2.52,-34.7,23.9
2012-01-07 00:45:00,0.0,1.9363,0.0009,404.34,0.18,-1.0,0.0,138.22,23.83,24.57,36.24,0.04,-272.74,-272.74,-44,541,-939,18.8,1.1,-37.2,18.9,1.2,-36.9,5.73,2.51,-34.7,23.8
2012-01-07 00:46:00,0.0,1.9356,0.0009,404.34,0.17,-1.0,0.0,138.22,23.83,24.57,36.24,0.04,-272.74,-272.74,-44,541,-939,18.8,1.2,-37.1,18.9,1.2,-36.9,5.73,2.43,-34.7,23.8
2012-01-07 00:47:00,0.0,1.9345,0.0009,404.37,0.21,-1.0,0.0,138.22,23.83,24.57,36.23,0.04,-272.74,-272.74,-44,541,-939,18.8,1.1,-37.2,18.9,1.2,-36.9,5.73,2.44,-34.7,23.9
2012-01-07 00:48:00,0.0,1.9334,0.0009,404.28,0.17,-1.0,0.0,138.22,23.83,24.57,36.24,0.04,-272.74,-272.74,-44,541,-939,18.8,1.1,-37.4,18.9,1.2,-36.9,5.73,2.51,-34.6,23.8
2012-01-07 00:49:00,0.0,1.9335,0.0009,404.33,0.18,-1.0,0.0,138.22,23.83,24.57,36.24,0.04,-272.74,-272.74,-44,541,-939,18.8,1.1,-37.2,18.9,1.2,-36.9,5.73,2.52,-34.7,23.8
2012-01-07 00:50:00,0.0,1.9340,0.0009,404.32,0.18,-1.0,0.0,138.22,23.82,24.57,36.23,0.04,-272.73,-272.74,-44,541,-939,18.8,1.2,-37.1,18.9,1.2,-36.9,5.73,2.44,-34.7,23.8
2012-01-07 00:51:00,0.0,1.9336,0.0009,404.21,0.18,-1.0,0.0,138.22,23.82,24.57,36.25,0.04,-272.74,-272.74,-44,541,-939,18.8,1.1,-37.2,18.9,1.2,-36.9,5.73,2.43,-34.7,23.8
2012-01-07 00:52:00,0.0,1.9350,0.0007,404.39,0.19,-1.0,0.0,138.22,23.82,24.57,36.23,0.04,-272.74,-272.74,-44,541,-939,18.8,1.2,-37.1,18.9,1.2,-36.9,5.73,2.51,-34.7,23.9
2012-01-07 00:53:00,0.0,1.9345,0.0010,404.36,0.14,-1.0,0.0,138.22,23.83,24.57,36.23,0.04,-272.74,-272.74,-43,541,-939,18.8,1.1,-37.2,18.9,1.2,-36.7,5.73,2.52,-34.7,23.9
2012-01-07 00:54:00,0.0,1.9350,0.0008,404.38,0.20,-1.0,0.0,138.22,23.83,24.57,36.23,0.04,-272.74,-272.74,-44,541,-939,18.8,1.1,-37.2,18.9,1.2,-36.7,5.73,2.45,-34.7,23.8
2012-01-07 00:55:00,0.0,1.9364,0.0009,404.46,0.20,-1.0,0.0,138.22,23.83,24.57,36.24,0.04,-272.74,-272.74,-44,541,-939,18.8,1.1,-37.2,18.9,1.2,-36.7,5.73,2.42,-34.7,23.8
2012-01-07 00:56:00,0.0,1.9353,0.0010,404.33,0.19,-1.0,0.0,138.22,23.82,24.57,36.24,0.04,-272.74,-272.74,-44,541,-939,18.8,1.2,-36.9,18.9,1.2,-36.6,5.73,2.50,-34.7,23.8
2012-01-07 00:57:00,0.0,1.9357,0.0009,404.39,0.23,-1.0,0.0,138.22,23.82,24.57,36.24,0.04,-272.74,-272.74,-44,541,-939,18.8,1.2,-37.0,18.9,1.2,-36.5,5.73,2.52,-34.7,23.8
2012-01-07 00:58:00,0.0,1.9357,0.0008,404.35,0.22,-1.0,0.0,138.22,23.82,24.57,36.24,0.04,-272.74,-272.74,-44,541,-939,18.8,1.2,-37.0,18.9,1.2,-36.5,5.73,2.45,-34.7,23.8
2012-01-07 00:59:00,0.0,1.9352,0.0019,404.32,0.19,-1.0,0.0,138.22,23.82,24.58,36.24,0.04,-272.74,-272.74,-44,541,-939,18.8,1.2,-36.9,18.9,1.2,-36.5,5.73,2.42,-34.6,23.8
2012-01-07 01:00:00,0.0,1.9330,0.0010,404.14,0.20,-1.0,0.0,138.22,23.82,24.58,36.24,0.04,-272.74,-272.74,-44,541,-939,18.8,1.2,-36.9,18.9,1.2,-36.4,5.73,2.49,-34.6,23.8
2012-01-07 01:01:00,0.0,1.9324,0.0008,404.26,0.20,-1.0,0.0,138.22,23.82,24.57,36.23,0.04,-272.74,-272.74,-44,541,-939,18.8,1.2,-36.9,18.9,1.2,-36.6,5.73,2.53,-34.6,23.8
2012-01-07 01:02:00,0.0,1.9321,0.0015,404.15,0.22,-1.0,0.0,138.22,23.82,24.58,36.24,0.04,-272.74,-272.74,-44,541,-939,18.8,1.2,-37.0,18.9,1.2,-36.7,5.73,2.45,-34.6,23.8
2012-01-07 01:03:00,0.0,1.9313,0.0008,404.13,0.21,-1.0,0.0,138.22,23.82,24.57,36.24,0.04,-272.74,-272.74,-44,541,-939,18.8,1.1,-37.2,18.9,1.2,-36.7,5.73,2.41,-34.7,23.8
2012-01-07 01:04:00,0.0,1.9330,0.0018,404.21,0.17,-1.0,0.0,138.22,23.82,24.57,36.24,0.04,-272.74,-272.74,-44,541,-939,18.8,1.1,-37.3,18.9,1.2,-36.7,5.73,2.49,-34.7,23.8
2012-01-07 01:05:00,0.0,1.9347,0.0009,404.37,0.20,-1.0,0.0,138.22,23.82,24.58,36.23,0.04,-272.74,-272.74,-44,541,-939,18.8,1.1,-37.2,18.9,1.2,-36.6,5.73,2.53,-34.7,23.8
2012-01-07 01:06:00,0.0,1.9320,0.0010,404.16,0.16,-1.0,0.0,138.22,23.82,24.57,36.24,0.04,-272.74,-272.74,-44,541,-939,18.8,1.2,-37.1,18.9,1.2,-36.7,5.73,2.45,-34.6,23.8
2012-01-07 01:07:00,0.0,1.9319,0.0008,404.13,0.22,-1.0,0.0,138.22,23.82,24.58,36.25,0.04,-272.74,-272.74,-44,541,-939,18.8,1.1,-37.2,18.9,1.2,-36.9,5.73,2.42,-34.6,23.8
2012-01-07 01:08:00,0.0,1.9324,0.0007,404.11,0.22,-1.0,0.0,138.22,23.82,24.57,36.25,0.04,-272.74,-272.74,-44,541,-939,18.8,1.2,-37.1,18.9,1.2,-36.9,5.73,2.50,-34.6,23.8
2012-01-07 01:09:00,0.0,1.9323,0.0007,404.20,0.17,-1.0,0.0,138.22,23.82,24.57,36.24,0.04,-272.74,-272.74,-44,541,-939,18.8,1.1,-37.3,18.9,1.2,-36.9,5.73,2.53,-34.6,23.8
2012-01-07 01:10:00,0.0,1.9326,0.0011,404.27,0.16,-1.0,0.0,138.22,23.82,24.57,36.24,0.04,-272.74,-272.74,-44,541,-939,18.8,1.1,-37.4,18.9,1.2,-36.9,5.73,2.44,-34.6,23.8
2012-01-07 01:11:00,0.0,1.9328,0.0009,404.20,0.17,-1.0,0.0,138.22,23.82,24.57,36.24,0.04,-272.74,-272.74,-44,541,-939,18.8,1.1,-37.4,18.9,1.2,-36.9,5.73,2.42,-34.6,23.8
2012-01-07 01:12:00,0.0,1.9320,0.0010,404.17,0.20,-1.0,0.0,138.22,23.82,24.58,36.24,0.04,-272.74,-272.74,-44,541,-939,18.8,1.1,-37.4,18.9,1.2,-36.9,5.73,2.51,-34.6,23.8
2012-01-07 01:13:00,0.0,1.9326,0.0010,404.22,0.19,-1.0,0.0,138.22,23.81,24.57,36.24,0.04,-272.74,-272.74,-44,541,-939,18.8,1.1,-37.4,18.9,1.2,-37.1,5.73,2.52,-34.6,23.8
2012-01-07 01:14:00,0.0,1.9327,0.0010,404.23,0.20,-1.0,0.0,138.22,23.81,24.57,36.24,0.04,-272.74,-272.74,-44,541,-939,18.8,1.1,-37.4,18.9,1.1,-37.2,5.73,2.43,-34.6,23.8
2012-01-07 01:15:00,0.0,1.9319,0.0010,404.26,0.19,-1.0,0.0,138.22,23.81,24.58,36.23,0.04,-272.74,-272.74,-44,541,-939,18.9,1.1,-37.6,18.9,1.1,-37.1,5.73,2.43,-34.6,23.8
2012-01-07 01:16:00,0.0,1.9314,0.0010,404.23,0.16,-1.0,0.0,138.22,23.81,24.58,36.24,0.04,-272.74,-272.74,-44,541,-939,18.8,1.1,-37.6,18.9,1.1,-37.1,5.73,2.52,-34.6,23.7
2012-01-07 01:17:00,0.0,1.9315,0.0010,404.22,0.19,-1.0,0.0,138.22,23.81,24.58,36.23,0.04,-272.74,-272.74,-44,541,-939,18.8,1.1,-37.6,18.9,1.1,-37.1,5.73,2.51,-34.6,23.8
2012-01-07 01:18:00,0.0,1.9321,0.0010,404.23,0.18,-1.0,0.0,138.22,23.80,24.57,36.23,0.04,-272.74,-272.74,-44,541,-939,18.8,1.1,-37.6,18.9,1.1,-37.2,5.73,2.41,-34.6,23.8
2012-01-07 01:19:00,0.0,1.9317,0.0011,404.18,0.19,-1.0,0.0,138.22,23.80,24.58,36.24,0.04,-272.74,-272.74,-44,541,-939,18.8,1.1,-37.6,18.9,1.1,-37.2,5.73,2.45,-34.6,23.8
2012-01-07 01:20:00,1.0,1.8977,0.0238,388.17,11.22,-1.0,0.0,138.22,23.81,24.58,36.24,0.04,-272.74,-272.74,-44,546,-939,18.8,1.1,-37.6,18.9,1.1,-37.5,5.73,2.49,-34.6,23.8
2012-01-07 01:21:00,1.0,1.8703,0.0009,375.59,0.19,-1.0,0.0,138.22,23.81,24.58,36.25,0.04,-272.73,-272.74,-44,544,-939,18.8,1.1,-37.6,18.9,1.1,-37.3,5.73,2.48,-34.6,23.8
2012-01-07 01:22:00,1.0,1.8701,0.0009,375.62,0.17,-1.0,0.0,138.22,23.81,24.58,36.26,0.04,-272.73,-272.74,-44,544,-939,18.8,1.1,-37.6,18.9,1.1,-37.1,5.73,2.41,-34.6,23.8
2012-01-07 01:23:00,1.0,1.8698,0.0010,375.75,0.18,-1.0,0.0,138.22,23.81,24.57,36.25,0.04,-272.73,-272.74,-43,544,-939,18.8,1.1,-37.4,18.9,1.1,-37.2,5.73,2.47,-34.6,23.8
2012-01-07 01:24:00,1.0,1.8701,0.0009,375.67,0.15,-1.0,0.0,138.22,23.81,24.57,36.25,0.04,-272.74,-272.74,-44,544,-939,18.9,1.2,-36.3,18.9,1.3,-36.0,5.73,2.53,-34.6,23.8
2012-01-07 01:25:00,0.0,1.9043,0.0244,391.39,11.07,-1.0,0.0,138.22,23.81,24.57,36.25,0.04,-272.74,-272.74,-44,540,-939,18.9,1.2,-37.0,18.9,1.2,-36.6,5.73,2.46,-34.6,23.8
2012-01-07 01:26:00,0.0,1.9326,0.0007,404.20,0.18,-1.0,0.0,138.22,23.81,24.57,36.24,0.04,-272.74,-272.74,-44,540,-939,18.9,1.1,-37.2,18.9,1.2,-36.8,5.73,2.41,-34.6,23.8
2012-01-07 01:27:00,0.0,1.9328,0.0008,404.17,0.16,-1.0,0.0,138.22,23.81,24.57,36.24,0.04,-272.74,-272.74,-44,541,-939,18.9,1.1,-37.2,18.9,1.2,-36.8,5.73,2.50,-34.6,23.8
2012-01-07 01:28:00,0.0,1.9322,0.0009,404.20,0.19,-1.0,0.0,138.22,23.81,24.57,36.23,0.04,-272.74,-272.74,-44,540,-939,18.9,1.2,-36.9,18.9,1.2,-36.6,5.73,2.53,-34.5,23.8
2012-01-07 01:29:00,0.0,1.9323,0.0008,404.15,0.18,-1.0,0.0,138.22,23.81,24.58,36.24,0.04,-272.74,-272.74,-44,540,-939,18.9,1.2,-36.9,18.9,1.2,-36.4,5.73,2.43,-34.6,23.8
2012-01-07 01:30:00,0.0,1.9327,0.0010,404.15,0.20,-1.0,0.0,138.22,23.81,24.57,36.24,0.04,-272.74,-272.74,-44,540,-939,18.9,1.2,-36.9,18.9,1.2,-36.5,5.73,2.43,-34.5,23.8
2012-01-07 01:31:00,0.0,1.9325,0.0008,404.17,0.17,-1.0,0.0,138.22,23.80,24.58,36.24,0.04,-272.74,-272.74,-44,541,-939,18.9,1.3,-36.3,18.9,1.3,-35.9,5.73,2.53,-34.5,23.8
2012-01-07 01:32:00,0.0,1.9328,0.0008,404.14,0.15,-1.0,0.0,138.22,23.80,24.58,36.24,0.04,-272.74,-272.74,-44,541,-939,18.9,1.2,-36.4,18.9,1.3,-36.0,5.73,2.50,-34.5,23.8
2012-01-07 01:33:00,0.0,1.9337,0.0009,404.16,0.18,-1.0,0.0,138.22,23.80,24.57,36.24,0.04,-272.74,-272.74,-44,541,-939,18.9,1.2,-36.8,18.9,1.2,-36.4,5.73,2.41,-34.5,23.8
2012-01-07 01:34:00,0.0,1.9342,0.0011,404.24,0.17,-1.0,0.0,138.22,23.80,24.57,36.24,0.04,-272.73,-272.74,-44,541,-939,18.9,1.2,-36.9,18.9,1.2,-36.4,5.73,2.46,-34.5,23.8
2012-01-07 01:35:00,0.0,1.9337,0.0009,404.13,0.18,-1.0,0.0,138.22,23.80,24.57,36.25,0.04,-272.74,-272.74,-44,540,-939,18.9,1.2,-36.9,18.9,1.2,-36.4,5.73,2.53,-34.6,23.8
2012-01-07 01:36:00,0.0,1.9340,0.0007,404.29,0.19,-1.0,0.0,138.22,23.80,24.57,36.24,0.04,-272.74,-272.74,-44,541,-939,18.9,1.2,-36.8,18.9,1.2,-36.5,5.73,2.48,-34.6,23.8
2012-01-07 01:37:00,0.0,1.9342,0.0009,404.20,0.16,-1.0,0.0,138.22,23.80,24.57,36.24,0.04,-272.74,-272.74,-44,541,-939,18.9,1.2,-36.7,18.9,1.2,-36.3,5.73,2.41,-34.6,23.9
2012-01-07 01:38:00,0.0,1.9344,0.0009,404.22,0.23,-1.0,0.0,138.22,23.80,24.57,36.24,0.04,-272.74,-272.74,-44,541,-939,18.9,1.2,-36.7,18.9,1.3,-36.2,5.73,2.49,-34.6,23.8
2012-01-07 01:39:00,0.0,1.9347,0.0008,404.24,0.17,-1.0,0.0,138.22,23.80,24.57,36.24,0.04,-272.74,-272.74,-44,541,-939,18.9,1.2,-36.7,18.9,1.3,-36.2,5.73,2.53,-34.6,23.8
2012-01-07 01:40:00,0.0,1.9340,0.0008,404.24,0.16,-1.0,0.0,138.22,23.80,24.58,36.24,0.04,-272.73,-272.74,-44,541,-939,18.9,1.2,-36.6,18.9,1.3,-36.2,5.73,2.43,-34.6,23.8
2012-01-07 01:41:00,0.0,1.9334,0.0010,404.19,0.18,-1.0,0.0,138.22,23.80,24.57,36.24,0.04,-272.74,-272.74,-44,541,-939,18.9,1.2,-36.7,18.9,1.3,-36.2,5.73,2.43,-34.6,23.8
2012-01-07 01:42:00,0.0,1.9341,0.0008,404.30,0.14,-1.0,0.0,138.22,23.80,24.57,36.24,0.04,-272.74,-272.74,-44,541,-939,18.9,1.2,-36.6,18.9,1.3,-36.2,5.73,2.52,-34.6,23.8
2012-01-07 01:43:00,0.0,1.9345,0.0008,404.27,0.18,-1.0,0.0,138.22,23.80,24.57,36.24,0.04,-272.74,-272.74,-44,541,-939,18.9,1.2,-36.7,18.9,1.3,-36.2,5.73,2.50,-34.6,23.8
2012-01-07 01:44:00,0.0,1.9341,0.0010,404.24,0.17,-1.0,0.0,138.22,23.80,24.57,36.24,0.04,-272.74,-272.74,-44,541,-939,18.9,1.2,-36.7,18.9,1.3,-36.2,5.73,2.41,-34.6,23.8
2012-01-07 01:45:00,0.0,1.9347,0.0008,404.24,0.20,-1.0,0.0,138.22,23.80,24.57,36.24,0.04,-272.74,-272.74,-44,541,-939,18.9,1.2,-36.6,18.9,1.3,-36.2,5.73,2.47,-34.6,23.9
2012-01-07 01:46:00,0.0,1.9348,0.0008,404.30,0.18,-1.0,0.0,138.22,23.81,24.58,36.24,0.04,-272.74,-272.74,-44,541,-939,18.9,1.2,-36.6,18.9,1.3,-36.2,5.73,2.53,-34.6,23.9
2012-01-07 01:47:00,0.0,1.9359,0.0009,404.20,0.19,-1.0,0.0,138.22,23.81,24.57,36.24,0.04,-272.73,-272.74,-44,541,-939,18.9,1.2,-36.6,18.9,1.3,-36.2,5.73,2.45,-34.6,23.9
2012-01-07 01:48:00,0.0,1.9353,0.0010,404.25,0.17,-1.0,0.0,138.22,23.82,24.57,36.24,0.04,-272.74,-272.74,-44,541,-939,18.9,1.2,-36.6,18.9,1.3,-36.2,5.73,2.42,-34.6,23.8
2012-01-07 01:49:00,0.0,1.9352,0.0009,404.29,0.22,-1.0,0.0,138.22,23.82,24.58,36.24,0.04,-272.74,-272.74,-44,541,-939,18.9,1.2,-36.6,18.9,1.3,-36.2,5.73,2.51,-34.6,23.9
2012-01-07 01:50:00,0.0,1.9335,0.0010,404.25,0.17,-1.0,0.0,138.22,23.82,24.58,36.24,0.04,-272.74,-272.74,-44,541,-939,18.9,1.2,-36.6,18.9,1.3,-36.2,5.73,2.51,-34.6,23.9
2012-01-07 01:51:00,0.0,1.9334,0.0009,404.16,0.17,-1.0,0.0,138.22,23.81,24.57,36.24,0.04,-272.74,-272.74,-44,541,-939,18.9,1.2,-36.7,18.9,1.3,-36.2,5.73,2.41,-34.6,23.8
2012-01-07 01:52:00,0.0,1.9343,0.0010,404.26,0.15,-1.0,0.0,138.22,23.82,24.57,36.24,0.04,-272.74,-272.74,-44,541,-939,18.9,1.2,-36.6,18.9,1.3,-36.2,5.73,2.45,-34.6,23.8
2012-01-07 01:53:00,0.0,1.9337,0.0008,404.27,0.17,-1.0,0.0,138.22,23.82,24.58,36.23,0.04,-272.74,-272.74,-44,541,-939,18.9,1.2,-36.8,18.9,1.2,-36.4,5.73,2.54,-34.6,23.8
2012-01-07 01:54:00,0.0,1.9341,0.0009,404.23,0.17,-1.0,0.0,138.22,23.82,24.57,36.24,0.04,-272.74,-272.74,-44,541,-939,18.9,1.2,-36.9,18.9,1.2,-36.4,5.73,2.46,-34.6,23.9
2012-01-07 01:55:00,0.0,1.9341,0.0009,404.27,0.18,-1.0,0.0,138.22,23.82,24.58,36.23,0.04,-272.74,-272.73,-44,541,-939,18.9,1.2,-36.8,18.9,1.2,-36.4,5.73,2.41,-34.6,23.9
2012-01-07 01:56:00,0.0,1.9346,0.0009,404.24,0.19,-1.0,0.0,138.22,23.82,24.57,36.24,0.04,-272.74,-272.74,-44,541,-939,18.9,1.2,-36.9,18.9,1.2,-36.4,5.73,2.50,-34.6,23.9
2012-01-07 01:57:00,0.0,1.9343,0.0008,404.29,0.18,-1.0,0.0,138.22,23.82,24.58,36.23,0.04,-272.74,-272.74,-44,541,-939,18.9,1.2,-36.9,18.9,1.2,-36.5,5.73,2.52,-34.6,23.9
2012-01-07 01:58:00,0.0,1.9337,0.0009,404.23,0.18,-1.0,0.0,138.22,23.82,24.58,36.23,0.04,-272.74,-272.74,-44,541,-939,18.9,1.2,-36.9,18.9,1.2,-36.7,5.73,2.42,-34.6,23.9
2012-01-07 01:59:00,0.0,1.9339,0.0011,404.24,0.20,-1.0,0.0,138.22,23.82,24.57,36.24,0.04,-272.74,-272.74,-44,541,-939,18.9,1.1,-37.1,18.9,1.2,-36.7,5.73,2.45,-34.6,23.9
2012-01-07 02:00:00,0.0,1.9345,0.0010,404.14,0.21,-1.0,0.0,138.22,23.82,24.57,36.24,0.04,-272.74,-272.74,-44,541,-939,18.9,1.2,-37.1,18.9,1.2,-36.7,5.73,2.54,-34.6,23.9
2012-01-07 02:01:00,0.0,1.9345,0.0008,404.24,0.20,-1.0,0.0,138.22,23.82,24.57,36.24,0.04,-272.74,-272.74,-44,541,-939,18.9,1.2,-37.1,18.9,1.2,-36.7,5.73,2.45,-34.6,23.8
2012-01-07 02:02:00,0.0,1.9343,0.0009,404.17,0.19,-1.0,0.0,138.22,23.82,24.58,36.24,0.04,-272.74,-272.74,-44,541,-939,18.9,1.2,-36.9,18.9,1.2,-36.5,5.73,2.42,-34.6,23.8
2012-01-07 02:03:00,0.0,1.9344,0.0010,404.29,0.17,-1.0,0.0,138.22,23.82,24.58,36.23,0.23,-271.19,-272.66,-44,541,-939,18.9,1.2,-36.9,18.9,1.2,-36.4,5.42,2.51,-38.2,23.8
2012-01-07 02:04:00,0.0,1.9349,0.0007,404.21,0.17,-1.0,0.0,138.22,23.82,24.57,36.24,0.04,-272.73,-272.74,-44,541,-939,18.9,1.2,-36.8,18.9,1.2,-36.4,5.73,2.52,-34.6,23.8
2012-01-07 02:05:00,0.0,1.9349,0.0008,404.14,0.21,-1.0,0.0,138.22,23.83,24.58,36.25,0.04,-272.74,-272.74,-44,541,-939,18.9,1.2,-36.9,18.9,1.2,-36.4,5.73,2.41,-34.6,23.8
2012-01-07 02:06:00,0.0,1.9346,0.0007,404.27,0.18,-1.0,0.0,138.22,23.83,24.58,36.24,0.04,-272.74,-272.74,-44,541,-939,18.9,1.2,-36.8,18.9,1.2,-36.4,5.73,2.45,-34.6,23.8
2012-01-07 02:07:00,0.0,1.9346,0.0008,404.32,0.18,-1.0,0.0,138.22,23.82,24.57,36.24,0.04,-272.74,-272.74,-44,541,-939,18.9,1.2,-36.9,18.9,1.2,-36.4,5.73,2.54,-34.6,23.8
2012-01-07 02:08:00,0.0,1.9348,0.0009,404.26,0.19,-1.0,0.0,138.22,23.82,24.57,36.24,0.04,-272.74,-272.74,-44,541,-939,18.9,1.2,-36.9,18.9,1.2,-36.4,5.73,2.45,-34.6,23.7
2012-01-07 02:09:00,0.0,1.9347,0.0008,404.28,0.18,-1.0,0.0,138.22,23.82,24.57,36.24,0.04,-272.74,-272.74,-44,541,-939,18.9,1.2,-36.8,18.9,1.2,-36.4,5.73,2.42,-34.6,23.8
2012-01-07 02:10:00,0.0,1.9347,0.0008,404.23,0.16,-1.0,0.0,138.22,23.82,24.57,36.24,0.04,-272.74,-272.74,-44,541,-939,18.9,1.2,-36.9,18.9,1.2,-36.4,5.73,2.52,-34.6,23.8
2012-01-07 02:11:00,0.0,1.9346,0.0008,404.22,0.22,-1.0,0.0,138.22,23.82,24.58,36.24,0.04,-272.74,-272.74,-44,541,-939,18.9,1.2,-36.9,18.9,1.2,-36.6,5.73,2.50,-34.5,23.8
2012-01-07 02:12:00,0.0,1.9353,0.0009,404.17,0.16,-1.0,0.0,138.22,23.82,24.57,36.24,0.04,-272.73,-272.74,-44,541,-939,18.9,1.1,-37.1,18.9,1.2,-36.6,5.73,2.40,-34.5,23.7
2012-01-07 02:13:00,0.0,1.9347,0.0010,404.31,0.21,-1.0,0.0,138.22,23.83,24.58,36.24,0.04,-272.74,-272.74,-44,541,-939,18.9,1.1,-37.1,18.9,1.2,-36.7,5.73,2.47,-34.5,23.8
2012-01-07 02:14:00,0.0,1.9349,0.0010,404.21,0.20,-1.0,0.0,138.22,23.83,24.57,36.24,0.04,-272.74,-272.74,-44,541,-939,18.9,1.2,-37.1,18.9,1.2,-36.9,5.73,2.53,-34.6,23.8
2012-01-07 02:15:00,0.0,1.9350,0.0008,404.23,0.19,-1.0,0.0,138.22,23.83,24.58,36.24,0.04,-272.74,-272.74,-44,541,-939,18.9,1.1,-37.2,18.9,1.2,-36.9,5.73,2.43,-34.5,23.8
2012-01-07 02:16:00,0.0,1.9354,0.0009,404.30,0.20,-1.0,0.0,138.22,23.82,24.57,36.23,0.04,-272.74,-272.74,-44,541,-939,18.9,1.1,-37.3,18.9,1.2,-36.9,5.73,2.43,-34.5,23.8
2012-01-07 02:17:00,0.0,1.9346,0.0009,404.26,0.20,-1.0,0.0,138.22,23.82,24.58,36.24,0.04,-272.73,-272.74,-44,541,-939,18.9,1.1,-37.4,18.9,1.2,-36.9,5.73,2.54,-34.5,23.8
2012-01-07 02:18:00,0.0,1.9352,0.0009,404.20,0.18,-1.0,0.0,138.22,23.82,24.57,36.24,0.04,-272.74,-272.74,-44,541,-939,18.9,1.1,-37.4,18.9,1.1,-37.1,5.73,2.48,-34.5,23.8